| time (UTC) | temp C | wind direction | speed KPH | gust KPH | rain 1hr cm | rain 24hr cm | rain mn cm | humidity % | barometer mb |
| 20260508193848 | 20 | 290 | 1.6 | 8.0 | 0.00 | 0.00 | 0.00 | 45 | 1010.9 |
| 20260508192828 | 20 | 224 | 6.4 | 20.9 | 0.00 | 0.00 | 0.00 | 44 | 1011.0 |
| 20260508191848 | 20 | 284 | 4.8 | 14.5 | 0.00 | 0.00 | 0.00 | 43 | 1011.0 |
| 20260508190828 | 21 | 184 | 19.3 | 19.3 | 0.00 | 0.00 | 0.00 | 43 | 1011.3 |
| 20260508185828 | 21 | 211 | 3.2 | 27.4 | 0.00 | 0.00 | 0.00 | 41 | 1011.3 |
| 20260508184828 | 20 | 215 | 4.8 | 8.0 | 0.00 | 0.00 | 0.00 | 45 | 1011.6 |
| 20260508150826 | 16 | 198 | 4.8 | 17.7 | 0.00 | 0.00 | 0.00 | 56 | 1014.8 |
| 20260508145826 | 16 | 269 | 3.2 | 16.1 | 0.00 | 0.00 | 0.00 | 54 | 1014.9 |
| 20260508144826 | 16 | 201 | 9.7 | 12.9 | 0.00 | 0.00 | 0.00 | 56 | 1014.9 |
| 20260508143826 | 16 | 300 | 3.2 | 11.3 | 0.00 | 0.00 | 0.00 | 56 | 1015.0 |
| 20260508142826 | 15 | 343 | 6.4 | 19.3 | 0.00 | 0.00 | 0.00 | 55 | 1015.0 |
| 20260508141825 | 15 | 306 | 3.2 | 16.1 | 0.00 | 0.00 | 0.00 | 56 | 1015.2 |
| 20260508140825 | 15 | 265 | 3.2 | 12.9 | 0.00 | 0.00 | 0.00 | 58 | 1015.3 |
| 20260508135825 | 14 | 262 | 4.8 | 16.1 | 0.00 | 0.00 | 0.00 | 57 | 1015.3 |
| 20260508134825 | 13 | 291 | 1.6 | 16.1 | 0.00 | 0.00 | 0.00 | 60 | 1015.4 |
| 20260508133826 | 13 | 186 | 4.8 | 8.0 | 0.00 | 0.00 | 0.00 | 59 | 1015.4 |
| 20260508092823 | 6 | 211 | 0.0 | 0.0 | 0.00 | 0.00 | 0.00 | 85 | 1014.7 |
| 20260508091823 | 6 | 211 | 0.0 | 0.0 | 0.00 | 0.00 | 0.00 | 85 | 1014.9 |
| 20260508090843 | 6 | 211 | 0.0 | 0.0 | 0.00 | 0.00 | 0.00 | 84 | 1014.9 |
| 20260508085824 | 6 | 212 | 0.0 | 0.0 | 0.00 | 0.00 | 0.00 | 84 | 1014.9 |
| 20260508050822 | 6 | 214 | 0.0 | 0.0 | 0.00 | 0.00 | 0.00 | 79 | 1015.2 |
| 20260508045822 | 6 | 212 | 0.0 | 0.0 | 0.00 | 0.00 | 0.00 | 78 | 1015.2 |
| 20260508044822 | 6 | 213 | 0.0 | 0.0 | 0.00 | 0.00 | 0.00 | 78 | 1015.3 |
| 20260508043821 | 6 | 211 | 0.0 | 0.0 | 0.00 | 0.00 | 0.00 | 78 | 1015.0 |
| 20260508042822 | 6 | 214 | 0.0 | 0.0 | 0.00 | 0.00 | 0.00 | 77 | 1015.0 |
| 20260508041821 | 6 | 213 | 0.0 | 0.0 | 0.00 | 0.00 | 0.00 | 78 | 1015.1 |
| 20260508040821 | 7 | 212 | 0.0 | 0.0 | 0.00 | 0.00 | 0.00 | 78 | 1015.0 |
| 20260508035821 | 7 | 211 | 0.0 | 0.0 | 0.00 | 0.00 | 0.00 | 78 | 1015.0 |